This demonstration page uses our WeatherBlox Daily Observations layout. Learn more.

Left ArrowRight Arrow

Hourly Observations for April 1, 2018

Temp ( °F °C ) Dew Point ( °F °C ) Humidity (%) Winds ( mph kmh ) Pressure ( in mb ) Visibility ( mi km ) Precip ( " mm )
12:53 am 00:53 Cloudy 28 -2.2 10 -12.2 47 47 N 15 24 30.44 1031 10 16 0.00 0.00
1:34 am 01:34 Cloudy with Light Snow 24 -4.4 19 -7.2 81 81 N 17 28 30.48 1032 2 3 0.00 0.03
1:42 am 01:42 Cloudy with Light Snow 23 -5 20 -6.7 88 88 NNE 14 22 30.48 1032 1 1 0.00 0.03
1:53 am 01:53 Mostly Cloudy with Light Snow 23 -5 21 -6.1 92 92 NNE 15 24 30.41 1030 1 1 0.00 0.03
2:07 am 02:07 Mostly Cloudy with Light Snow 22 -5.6 21 -6.1 96 96 NNE 13 20 30.45 1031 1 1 0.00 0.03
2:53 am 02:53 Mostly Cloudy with Snow 22 -5.6 20 -6.7 92 92 NNE 14 22 30.41 1030 1 1 0.03 0.76
3:09 am 03:09 Mostly Cloudy with Light Snow 21 -6 19 -7 93 93 NNE 10 17 30.48 1032 1 2 0.00 0.00
3:19 am 03:19 Cloudy with Light Snow 22 -5.6 20 -6.7 92 92 NNE 12 19 30.45 1031 2 3 0.00 0.03
3:40 am 03:40 Cloudy with Light Snow 21 -6 19 -7 93 93 NNE 10 17 30.48 1032 3 5 0.00 0.00
3:50 am 03:50 Cloudy with Light Snow 21 -6 19 -7 93 93 NNE 9 15 30.48 1032 3 4 0.00 0.00
3:53 am 03:53 Cloudy with Light Snow 22 -5.6 20 -6.7 92 92 NNE 12 19 30.39 1029 2 3 0.00 0.03
4:00 am 04:00 Mostly Cloudy with Light Snow 21 -6 19 -7 93 93 NE 8 13 30.48 1032 1 1 0.00 0.00
4:13 am 04:13 Cloudy with Light Snow 22 -5.6 20 -6.7 92 92 NE 7 11 30.45 1031 2 3 0.01 0.25
4:22 am 04:22 Cloudy with Light Snow 21 -6.1 20 -6.7 96 96 NE 8 13 30.48 1032 3 4 0.01 0.25
4:30 am 04:30 Cloudy with Light Snow 21 -6 19 -7 93 93 NNE 8 13 30.48 1032 3 5 0.00 0.00
4:38 am 04:38 Cloudy with Light Snow 21 -6.1 19 -7.2 92 92 NNE 9 15 30.48 1032 2 3 0.01 0.25
4:46 am 04:46 Cloudy with Light Snow 21 -6 19 -7 93 93 NNE 9 15 30.45 1031 2 3 0.00 0.00
4:53 am 04:53 Cloudy with Light Snow 21 -6.1 19 -7.2 92 92 NNE 9 15 30.37 1028 2 3 0.01 0.25
5:12 am 05:12 Cloudy with Light Snow 21 -6 19 -7 93 93 NNE 12 19 30.45 1031 3 4 0.00 0.00
5:21 am 05:21 Cloudy with Light Snow 21 -6.1 19 -7.2 92 92 NNE 9 15 30.45 1031 3 5 0.00 0.03
5:48 am 05:48 Cloudy with Light Snow 21 -6 19 -7 93 93 NNE 7 11 30.45 1031 3 4 0.00 0.03
5:53 am 05:53 Cloudy with Light Snow 21 -6.1 20 -6.7 96 96 NNE 6 9 30.37 1028 3 5 0.00 0.03
6:02 am 06:02 Cloudy with Light Snow 21 -6 19 -7 93 93 NE 7 11 30.45 1031 3 4 0.00 0.00
6:07 am 06:07 Cloudy with Light Snow 21 -6 19 -7 93 93 NNE 6 9 30.45 1031 3 5 0.00 0.00
6:22 am 06:22 Cloudy with Light Snow 21 -6.1 19 -7.2 92 92 NNE 8 13 30.48 1032 2 3 0.00 0.03
6:30 am 06:30 Cloudy with Light Snow 21 -6 19 -7 93 93 NNE 7 11 30.48 1032 2 2 0.00 0.00
6:53 am 06:53 Mostly Cloudy with Light Snow 21 -6.1 20 -6.7 96 96 NE 5 7 30.39 1029 1 2 0.02 0.51
7:18 am 07:18 Cloudy with Light Snow 21 -6 19 -7 93 93 NE 5 7 30.48 1032 1 2 0.00 0.00
7:27 am 07:27 Mostly Cloudy with Light Snow 21 -6.1 19 -7.2 92 92 NE 5 7 30.48 1032 1 1 0.01 0.25
7:53 am 07:53 Mostly Cloudy with Snow 21 -6.1 19 -7.2 92 92 NNE 9 15 30.40 1029 1 1 0.03 0.76
8:53 am 08:53 Mostly Cloudy with Light Snow 21 -6.1 19 -7.2 92 92 NE 8 13 30.40 1029 1 1 0.02 0.51
9:13 am 09:13 Mostly Cloudy with Light Snow 21 -6.1 19 -7.2 92 92 ENE 7 11 30.48 1032 1 1 0.01 0.25
9:20 am 09:20 Mostly Cloudy with Light Snow 21 -6 19 -7 93 93 NE 8 13 30.45 1031 1 2 0.00 0.00
9:28 am 09:28 Mostly Cloudy with Light Snow 21 -6 19 -7 93 93 ENE 6 9 30.45 1031 1 1 0.00 0.00
9:51 am 09:51 Mostly Cloudy with Snow 21 -6 19 -7 93 93 NE 7 11 30.45 1031 1 1 0.02 0.51
9:53 am 09:53 Mostly Cloudy with Snow 21 -6.1 19 -7.2 92 92 NE 7 11 30.39 1029 1 1 0.02 0.51
10:29 am 10:29 Mostly Cloudy with Snow 21 -6.1 19 -7.2 92 92 ENE 6 9 30.48 1032 1 1 0.03 0.76
10:53 am 10:53 Mostly Cloudy with Heavy Snow 21 -6.1 19 -7.2 92 92 E 6 9 30.40 1029 0 0 0.05 1.27
11:13 am 11:13 Mostly Cloudy with Snow 21 -6.1 19 -7.2 92 92 E 5 7 30.48 1032 1 1 0.01 0.25
11:32 am 11:32 Cloudy with Snow 21 -6 19 -7 93 93 ENE 7 11 30.48 1032 1 1 0.00 0.00
11:48 am 11:48 Cloudy with Light Snow 21 -6 19 -7 93 93 ENE 7 11 30.48 1032 1 1 0.00 0.00
11:53 am 11:53 Cloudy with Light Snow 21 -6.1 19 -7.2 92 92 ENE 6 9 30.40 1030 1 1 0.03 0.76
12:12 pm 12:12 Mostly Cloudy with Light Snow 22 -5.6 20 -6.7 92 92 ENE 5 7 30.42 1030 1 2 0.00 0.03
12:38 pm 12:38 Cloudy with Light Snow 23 -5 19 -7 86 86 NE 5 7 30.42 1030 3 4 0.00 0.00
12:51 pm 12:51 Cloudy with Light Snow 23 -5 19 -7 86 86 ENE 6 9 30.42 1030 3 5 0.01 0.25
12:53 pm 12:53 Cloudy with Light Snow 23 -5 19 -7.2 85 85 NE 5 7 30.38 1029 4 6 0.01 0.25
12:59 pm 12:59 Cloudy with Light Snow 24 -4.4 20 -6.7 84 84 ENE 6 9 30.42 1030 4 6 0.00 0.03
1:11 pm 13:11 Mostly Cloudy with Light Snow 25 -4 19 -7 80 80 ENE 7 11 30.42 1030 4 6 0.00 0.00
1:22 pm 13:22 Mostly Cloudy with Light Snow 24 -4.4 20 -6.7 84 84 NE 6 9 30.42 1030 7 11 0.00 0.03
1:35 pm 13:35 Mostly Cloudy with Light Snow 25 -3.9 19 -7.2 78 78 NNE 5 7 30.39 1029 6 10 0.00 0.03
1:53 pm 13:53 Mostly Cloudy with Light Snow 25 -3.9 19 -7.2 78 78 NE 5 7 30.35 1028 8 13 0.00 0.03
2:00 pm 14:00 Mostly Cloudy with Light Snow 25 -3.9 19 -7.2 78 78 NNE 6 9 30.39 1029 8 13 0.00 0.03
2:53 pm 14:53 Mostly Cloudy with Light Snow 27 -2.8 19 -7.2 72 72 NNE 5 7 30.30 1026 9 14 0.00 0.03
3:53 pm 15:53 Sunny with Light Snow 28 -2.2 18 -7.8 66 66 NNE 3 6 30.27 1025 9 14 0.00 0.03
4:25 pm 16:25 Mostly Cloudy with Light Snow 27 -2.8 18 -7.8 69 69 Calm 30.27 1025 10 16 0.00 0.03
4:53 pm 16:53 Cloudy 25 -3.9 18 -7.8 75 75 S 6 9 30.25 1024 9 14 0.00 0.03
5:25 pm 17:25 Partly Cloudy 25 -3.9 18 -7.8 75 75 SW 3 6 30.30 1026 10 16 0.00 0.00
5:53 pm 17:53 Sunny 24 -4.4 18 -7.8 77 77 S 3 6 30.24 1024 10 16 0.00 0.00
6:53 pm 18:53 Sunny 24 -4.4 18 -7.8 77 77 S 7 11 30.21 1023 10 16 0.00 0.00
7:53 pm 19:53 Sunny 22 -5.6 17 -8.3 82 82 SE 9 15 30.18 1022 10 16 0.00 0.00
8:53 pm 20:53 Clear 20 -6.7 16 -8.9 85 85 SE 8 13 30.18 1022 10 16 0.00 0.00
9:53 pm 21:53 Clear 20 -6.7 15 -9.4 81 81 SE 7 11 30.18 1022 10 16 0.00 0.00
10:53 pm 22:53 Clear 19 -7.2 16 -8.9 88 88 SSE 7 11 30.18 1022 10 16 0.00 0.00
11:14 pm 23:14 Mostly Cloudy 19 -7 18 -8 93 93 SSE 7 11 30.24 1024 10 16 0.00 0.00
11:53 pm 23:53 Partly Cloudy 20 -6.7 17 -8.3 89 89 S 8 13 30.16 1021 10 16 0.00 0.00

Powered by AerisWeather